Weather History for Austin, MN

Change the Weather History Date:

Monday, September 30, 2013

  Actual Average Record
Temperature  
Mean Temperature 62 °F -  
Max Temperature 73 °F 65 °F 87 °F (2002)
Min Temperature 51 °F 41 °F 30 °F (2003)
Degree Days  
Heating Degree Days 3    
Growing Degree Days 12 (Base 50)    
Moisture  
Dew Point 48 °F    
Average Humidity 63    
Maximum Humidity 82    
Minimum Humidity 36    
Precipitation  
Precipitation 0.00 in - - ()
Sea Level Pressure  
Sea Level Pressure 29.78 in    
Wind  
Wind Speed 12 mph (South)    
Max Wind Speed 25 mph    
Max Gust Speed 34 mph    
Visibility 10 miles    
Events      
Averages and records for this station are not official NWS values.
T = Trace of Precipitation, MM = Missing Value Source: NWS Daily Summary

Daily Weather History Graph

Daily Weather History Graph

Search for Another Location

Airport:

Trip Planner

Search our weather history database for the weather conditions in past years. The results will help you decide how hot, cold, wet, or windy it might be!

Date:

Astronomy

Sep. 30, 2013 Rise Set
Actual Time 7:08 AM CDT 6:54 PM CDT
Civil Twilight 6:39 AM CDT 7:22 PM CDT
Nautical Twilight 6:06 AM CDT 7:55 PM CDT
Astronomical Twilight 5:32 AM CDT 8:29 PM CDT
Moon 2:38 AM CDT (9/30) 4:31 PM CDT (9/30)
Length of Visible Light 12h 42m
Length of Day
11h 45m
Waning Crescent, 19% of the Moon is Illuminated
Sep 30
Waning Crescent
Oct 4
New
Oct 11
First Quarter
Oct 18
Full
Oct 26
Last Quarter

Hourly Weather History & Observations

Time (CDT) Temp. Dew Point Humidity Pressure Visibility Wind Dir Wind Speed Gust Speed Precip Events Conditions
12:17 AM 55.4 °F 44.6 °F 67% 29.89 in 10.0 mi South 9.2 mph - N/A   Clear
12:36 AM 55.4 °F 44.6 °F 67% 29.89 in 10.0 mi South 10.4 mph - N/A   Clear
12:57 AM 55.4 °F 44.6 °F 67% 29.88 in 10.0 mi South 9.2 mph - N/A   Clear
1:16 AM 53.6 °F 44.6 °F 72% 29.88 in 10.0 mi South 8.1 mph - N/A   Clear
1:36 AM 53.6 °F 44.6 °F 72% 29.88 in 10.0 mi South 8.1 mph - N/A   Clear
1:57 AM 53.6 °F 46.4 °F 77% 29.88 in 10.0 mi South 10.4 mph - N/A   Clear
2:16 AM 53.6 °F 46.4 °F 77% 29.87 in 10.0 mi South 9.2 mph - N/A   Clear
2:36 AM 53.6 °F 46.4 °F 77% 29.87 in 10.0 mi South 8.1 mph - N/A   Clear
2:57 AM 51.8 °F 46.4 °F 82% 29.87 in 10.0 mi South 6.9 mph - N/A   Clear
3:16 AM 51.8 °F 46.4 °F 82% 29.87 in 10.0 mi South 9.2 mph - N/A   Clear
3:36 AM 51.8 °F 46.4 °F 82% 29.86 in 10.0 mi South 10.4 mph - N/A   Clear
3:57 AM 53.6 °F 46.4 °F 77% 29.85 in 10.0 mi South 10.4 mph - N/A   Clear
4:16 AM 53.6 °F 46.4 °F 77% 29.84 in 10.0 mi South 10.4 mph - N/A   Clear
4:37 AM 53.6 °F 46.4 °F 77% 29.84 in 10.0 mi South 9.2 mph - N/A   Clear
4:57 AM 53.6 °F 46.4 °F 77% 29.83 in 10.0 mi South 10.4 mph - N/A   Clear
5:16 AM 53.6 °F 46.4 °F 77% 29.84 in 10.0 mi South 12.7 mph 17.3 mph N/A   Clear
5:37 AM 55.4 °F 46.4 °F 72% 29.83 in 10.0 mi South 10.4 mph 18.4 mph N/A   Clear
5:56 AM 53.6 °F 46.4 °F 77% 29.83 in 10.0 mi South 9.2 mph - N/A   Clear
6:17 AM 53.6 °F 46.4 °F 77% 29.83 in 10.0 mi South 12.7 mph - N/A   Clear
6:36 AM 53.6 °F 46.4 °F 77% 29.83 in 10.0 mi South 10.4 mph 17.3 mph N/A   Clear
6:56 AM 51.8 °F 46.4 °F 82% 29.83 in 10.0 mi South 10.4 mph 16.1 mph N/A   Clear
7:17 AM 51.8 °F 46.4 °F 82% 29.82 in 10.0 mi South 11.5 mph 16.1 mph N/A   Clear
7:36 AM 53.6 °F 48.2 °F 82% 29.82 in 10.0 mi South 10.4 mph 17.3 mph N/A   Clear
7:57 AM 53.6 °F 48.2 °F 82% 29.82 in 10.0 mi South 10.4 mph 17.3 mph N/A   Clear
8:17 AM 53.6 °F 48.2 °F 82% 29.81 in 10.0 mi South 12.7 mph 17.3 mph N/A   Clear
8:36 AM 55.4 °F 50.0 °F 82% 29.81 in 10.0 mi South 12.7 mph - N/A   Clear
8:57 AM 55.4 °F 50.0 °F 82% 29.81 in 10.0 mi South 11.5 mph - N/A   Clear
9:17 AM 57.2 °F 50.0 °F 77% 29.81 in 10.0 mi South 13.8 mph 19.6 mph N/A   Clear
9:36 AM 60.8 °F 51.8 °F 72% 29.80 in 10.0 mi South 16.1 mph 23.0 mph N/A   Clear
9:57 AM 60.8 °F 50.0 °F 68% 29.80 in 10.0 mi South 19.6 mph 28.8 mph N/A   Clear
10:17 AM 60.8 °F 51.8 °F 72% 29.80 in 10.0 mi South 18.4 mph 25.3 mph N/A   Clear
10:36 AM 62.6 °F 51.8 °F 68% 29.79 in 10.0 mi South 23.0 mph 29.9 mph N/A   Clear
10:57 AM 62.6 °F 51.8 °F 68% 29.79 in 10.0 mi South 19.6 mph 27.6 mph N/A   Clear
11:16 AM 64.4 °F 51.8 °F 64% 29.78 in 10.0 mi South 19.6 mph 28.8 mph N/A   Clear
11:36 AM 64.4 °F 51.8 °F 64% 29.78 in 10.0 mi South 23.0 mph 29.9 mph N/A   Clear
11:57 AM 66.2 °F 51.8 °F 60% 29.78 in 10.0 mi South 17.3 mph 28.8 mph N/A   Clear
12:16 PM 66.2 °F 51.8 °F 60% 29.77 in 10.0 mi South 21.9 mph 27.6 mph N/A   Clear
12:36 PM 69.8 °F 51.8 °F 53% 29.76 in 10.0 mi South 23.0 mph 27.6 mph N/A   Clear
12:57 PM 69.8 °F 51.8 °F 53% 29.75 in 10.0 mi South 21.9 mph 28.8 mph N/A   Clear
1:16 PM 71.6 °F 50.0 °F 46% 29.74 in 10.0 mi South 19.6 mph 31.1 mph N/A   Clear
1:36 PM 71.6 °F 50.0 °F 46% 29.73 in 10.0 mi South 24.2 mph 33.4 mph N/A   Clear
1:56 PM 71.6 °F 50.0 °F 46% 29.73 in 10.0 mi South 21.9 mph 32.2 mph N/A   Clear
2:16 PM 73.4 °F 50.0 °F 44% 29.72 in 10.0 mi South 24.2 mph 29.9 mph N/A   Clear
2:37 PM 73.4 °F 48.2 °F 41% 29.71 in 10.0 mi South 20.7 mph 32.2 mph N/A   Clear
2:56 PM 73.4 °F 48.2 °F 41% 29.71 in 10.0 mi South 25.3 mph 34.5 mph N/A   Clear
3:16 PM 73.4 °F 48.2 °F 41% 29.70 in 10.0 mi South 20.7 mph 28.8 mph N/A   Clear
3:37 PM 73.4 °F 48.2 °F 41% 29.70 in 10.0 mi South 24.2 mph 32.2 mph N/A   Clear
3:56 PM 73.4 °F 46.4 °F 38% 29.70 in 10.0 mi South 17.3 mph 31.1 mph N/A   Clear
4:16 PM 73.4 °F 46.4 °F 38% 29.69 in 10.0 mi South 17.3 mph 29.9 mph N/A   Clear
4:37 PM 73.4 °F 46.4 °F 38% 29.69 in 10.0 mi South 17.3 mph 29.9 mph N/A   Clear
4:56 PM 73.4 °F 46.4 °F 38% 29.69 in 10.0 mi South 18.4 mph 25.3 mph N/A   Clear
5:17 PM 73.4 °F 44.6 °F 36% 29.70 in 10.0 mi South 18.4 mph 27.6 mph N/A   Clear
5:37 PM 73.4 °F 44.6 °F 36% 29.70 in 10.0 mi South 15.0 mph 23.0 mph N/A   Clear
5:56 PM 71.6 °F 44.6 °F 38% 29.70 in 10.0 mi South 16.1 mph 24.2 mph N/A   Clear
6:17 PM 71.6 °F 44.6 °F 38% - 10.0 mi South 13.8 mph 18.4 mph N/A   Clear
6:37 PM 69.8 °F 44.6 °F 40% 29.71 in 10.0 mi South 12.7 mph - N/A   Clear
6:56 PM 66.2 °F 44.6 °F 46% 29.71 in 10.0 mi South 9.2 mph - N/A   Clear
7:17 PM 64.4 °F 46.4 °F 52% 29.71 in 10.0 mi South 9.2 mph - N/A   Clear
7:37 PM 64.4 °F 46.4 °F 52% 29.71 in 10.0 mi South 8.1 mph - N/A   Clear
7:56 PM 62.6 °F 46.4 °F 55% 29.72 in 10.0 mi South 6.9 mph - N/A   Clear
8:17 PM 64.4 °F 46.4 °F 52% 29.73 in 10.0 mi South 6.9 mph - N/A   Clear
8:36 PM 62.6 °F 46.4 °F 55% 29.73 in 10.0 mi South 5.8 mph - N/A   Clear
8:57 PM 60.8 °F 48.2 °F 63% 29.73 in 10.0 mi Calm Calm - N/A   Clear
9:17 PM 60.8 °F 48.2 °F 63% 29.74 in 10.0 mi South 6.9 mph - N/A   Clear
9:36 PM 60.8 °F 48.2 °F 63% 29.74 in 10.0 mi South 6.9 mph - N/A   Clear
9:57 PM 59.0 °F 48.2 °F 67% 29.74 in 10.0 mi South 8.1 mph - N/A   Clear
10:17 PM 60.8 °F 48.2 °F 63% 29.74 in 10.0 mi South 8.1 mph - N/A   Clear
10:36 PM 60.8 °F 48.2 °F 63% 29.74 in 10.0 mi South 9.2 mph - N/A   Clear
10:57 PM 59.0 °F 48.2 °F 67% 29.74 in 10.0 mi South 8.1 mph - N/A   Clear
11:16 PM 59.0 °F 48.2 °F 67% 29.73 in 10.0 mi South 6.9 mph - N/A   Clear
11:37 PM 57.2 °F 48.2 °F 72% 29.73 in 10.0 mi South 8.1 mph - N/A   Clear
11:56 PM 57.2 °F 50.0 °F 77% 29.73 in 10.0 mi South 8.1 mph - N/A   Clear